• In Italy
  • List of Countries
  • For 7 days
  • Water Temperature
  • Satellite Maps
  • Weather Map
  • Weather Widgets
  • user-avatar
    Login

    Hourly Weather Salta

    Today, 21 September, Thursday

    Time Temperature Precipitation Wind Pressure Humidity
    00:00 +20°C° 0 mm 2 mps 653 mmHg 57%
    01:00 +19°C° 0 mm 2 mps 653 mmHg 60%
    02:00 +18°C° 0 mm 2 mps 653 mmHg 63%
    03:00 +17°C° 0 mm 2 mps 652 mmHg 63%
    04:00 +17°C° 0 mm 2 mps 652 mmHg 64%
    05:00 +16°C° 0 mm 2 mps 652 mmHg 65%
    06:00 +17°C° 0 mm 2 mps 653 mmHg 61%
    07:00 +17°C° 0 mm 2 mps 653 mmHg 57%
    08:00 +18°C° 0 mm 3 mps 654 mmHg 54%
    09:00 +19°C° 0 mm 3 mps 654 mmHg 49%
    10:00 +21°C° 0 mm 3 mps 654 mmHg 45%
    11:00 +22°C° 0 mm 4 mps 654 mmHg 41%
    12:00 +23°C° 0 mm 4 mps 654 mmHg 40%
    13:00 +23°C° 0 mm 4 mps 653 mmHg 39%
    14:00 +25°C° 0 mm 4 mps 652 mmHg 38%
    15:00 +23°C° 0 mm 4 mps 652 mmHg 42%
    16:00 +22°C° 0 mm 4 mps 652 mmHg 45%
    17:00 +21°C° 0 mm 4 mps 652 mmHg 48%
    18:00 +20°C° 0 mm 3 mps 652 mmHg 53%
    19:00 +18°C° 0 mm 2 mps 653 mmHg 58%
    20:00 +17°C° 0 mm 2 mps 653 mmHg 63%
    21:00 +16°C° 0 mm 1 mps 653 mmHg 65%
    22:00 +16°C° 0 mm 1 mps 653 mmHg 67%
    23:00 +15°C° 0 mm 1 mps 653 mmHg 69%

    Tomorrow, 22 September, Friday

    Time Temperature Precipitation Wind Pressure Humidity
    00:00 +15°C° 0 mm 1 mps 652 mmHg 70%
    01:00 +15°C° 0 mm 1 mps 652 mmHg 72%
    02:00 +14°C° 0 mm 1 mps 652 mmHg 73%
    03:00 +14°C° 0 mm 1 mps 652 mmHg 74%
    04:00 +14°C° 0 mm 1 mps 651 mmHg 75%
    05:00 +14°C° 0 mm 1 mps 651 mmHg 76%
    06:00 +15°C° 0 mm 1 mps 652 mmHg 70%
    07:00 +16°C° 0 mm 1 mps 653 mmHg 63%
    08:00 +19°C° 0 mm 1 mps 653 mmHg 57%
    09:00 +20°C° 0 mm 2 mps 654 mmHg 51%
    10:00 +21°C° 0 mm 2 mps 654 mmHg 45%
    11:00 +24°C° 0 mm 3 mps 654 mmHg 39%
    12:00 +25°C° 0 mm 3 mps 654 mmHg 39%
    13:00 +25°C° 0 mm 3 mps 653 mmHg 38%
    14:00 +26°C° 0 mm 3 mps 653 mmHg 38%
    15:00 +25°C° 0.1 mm 3 mps 653 mmHg 42%
    16:00 +23°C° 0.1 mm 4 mps 652 mmHg 45%
    17:00 +22°C° 0.1 mm 4 mps 652 mmHg 48%
    18:00 +20°C° 0 mm 3 mps 653 mmHg 53%
    19:00 +19°C° 0 mm 2 mps 653 mmHg 58%
    20:00 +18°C° 0 mm 1 mps 654 mmHg 63%
    21:00 +18°C° 0 mm 1 mps 654 mmHg 64%
    22:00 +16°C° 0 mm 1 mps 654 mmHg 65%
    23:00 +15°C° 0 mm 1 mps 654 mmHg 66%

    Day after tomorrow, 23 September, Saturday

    Time Temperature Precipitation Wind Pressure Humidity
    00:00 +15°C° 0 mm 1 mps 654 mmHg 67%
    01:00 +15°C° 0 mm 1 mps 653 mmHg 67%
    02:00 +15°C° 0 mm 1 mps 653 mmHg 67%
    03:00 +14°C° 0 mm 1 mps 653 mmHg 68%
    04:00 +14°C° 0 mm 1 mps 653 mmHg 68%
    05:00 +14°C° 0 mm 1 mps 653 mmHg 69%
    06:00 +15°C° 0 mm 1 mps 653 mmHg 63%
    07:00 +18°C° 0 mm 1 mps 654 mmHg 57%
    08:00 +19°C° 0 mm 1 mps 655 mmHg 51%
    09:00 +20°C° 0 mm 2 mps 655 mmHg 46%
    10:00 +23°C° 0 mm 2 mps 656 mmHg 42%
    11:00 +24°C° 0 mm 3 mps 656 mmHg 37%
    12:00 +25°C° 0 mm 3 mps 655 mmHg 37%
    13:00 +26°C° 0 mm 3 mps 654 mmHg 36%
    14:00 +26°C° 0 mm 3 mps 654 mmHg 35%
    15:00 +26°C° 0 mm 3 mps 653 mmHg 37%
    16:00 +25°C° 0 mm 3 mps 653 mmHg 39%
    17:00 +25°C° 0 mm 3 mps 652 mmHg 41%
    18:00 +22°C° 0 mm 3 mps 652 mmHg 46%
    19:00 +20°C° 0 mm 2 mps 652 mmHg 52%
    20:00 +19°C° 0 mm 1 mps 652 mmHg 57%
    21:00 +19°C° 0 mm 1 mps 652 mmHg 59%
    22:00 +18°C° 0 mm 1 mps 652 mmHg 61%
    23:00 +18°C° 0 mm 1 mps 652 mmHg 62%

    24 September, Sunday

    Time Temperature Precipitation Wind Pressure Humidity
    00:00 +18°C° 0 mm 1 mps 652 mmHg 63%
    01:00 +16°C° 0 mm 1 mps 651 mmHg 64%
    02:00 +16°C° 0 mm 1 mps 651 mmHg 65%
    03:00 +16°C° 0 mm 1 mps 650 mmHg 66%
    04:00 +15°C° 0 mm 1 mps 650 mmHg 67%
    05:00 +15°C° 0 mm 1 mps 650 mmHg 68%
    06:00 +18°C° 0 mm 1 mps 651 mmHg 61%
    07:00 +19°C° 0 mm 1 mps 652 mmHg 53%
    08:00 +21°C° 0 mm 1 mps 653 mmHg 46%
    09:00 +23°C° 0 mm 2 mps 653 mmHg 41%
    10:00 +25°C° 0 mm 2 mps 653 mmHg 37%
    11:00 +27°C° 0 mm 3 mps 653 mmHg 32%
    12:00 +28°C° 0 mm 3 mps 652 mmHg 31%
    13:00 +29°C° 0 mm 3 mps 652 mmHg 30%
    14:00 +30°C° 0 mm 3 mps 651 mmHg 29%
    15:00 +29°C° 0 mm 3 mps 651 mmHg 31%
    16:00 +28°C° 0 mm 3 mps 650 mmHg 34%
    17:00 +28°C° 0 mm 3 mps 650 mmHg 37%
    18:00 +26°C° 0.1 mm 2 mps 650 mmHg 44%
    19:00 +24°C° 0.1 mm 2 mps 651 mmHg 52%
    20:00 +22°C° 0.1 mm 1 mps 651 mmHg 60%
    21:00 +21°C° 0.1 mm 1 mps 651 mmHg 61%
    22:00 +21°C° 0.1 mm 1 mps 651 mmHg 63%
    23:00 +20°C° 0.1 mm 1 mps 651 mmHg 65%

    25 September, Monday

    Time Temperature Precipitation Wind Pressure Humidity
    00:00 +20°C° 0.4 mm 1 mps 651 mmHg 65%
    01:00 +20°C° 0.4 mm 1 mps 651 mmHg 66%
    02:00 +20°C° 0.4 mm 1 mps 651 mmHg 66%
    03:00 +20°C° 0.7 mm 1 mps 651 mmHg 67%
    04:00 +19°C° 0.7 mm 1 mps 651 mmHg 67%
    05:00 +19°C° 0.7 mm 1 mps 651 mmHg 67%
    06:00 +21°C° 0.3 mm 1 mps 652 mmHg 64%
    07:00 +22°C° 0.3 mm 1 mps 652 mmHg 60%
    08:00 +23°C° 0.3 mm 1 mps 653 mmHg 56%
    09:00 +25°C° 0.4 mm 1 mps 653 mmHg 51%
    10:00 +26°C° 0.4 mm 2 mps 653 mmHg 45%
    11:00 +28°C° 0.4 mm 2 mps 653 mmHg 40%
    12:00 +29°C° 0.2 mm 3 mps 653 mmHg 38%
    13:00 +29°C° 0.2 mm 3 mps 652 mmHg 37%
    14:00 +30°C° 0.2 mm 3 mps 652 mmHg 35%
    15:00 +29°C° 0.6 mm 3 mps 652 mmHg 38%
    16:00 +29°C° 0.6 mm 3 mps 651 mmHg 41%
    17:00 +28°C° 0.6 mm 3 mps 651 mmHg 44%
    18:00 +27°C° 0.2 mm 3 mps 651 mmHg 50%
    19:00 +25°C° 0.2 mm 2 mps 652 mmHg 57%
    20:00 +24°C° 0.2 mm 1 mps 652 mmHg 64%
    21:00 +23°C° 0.3 mm 1 mps 652 mmHg 66%
    22:00 +22°C° 0.3 mm 1 mps 652 mmHg 68%
    23:00 +22°C° 0.3 mm 1 mps 653 mmHg 71%

    26 September, Tuesday

    Time Temperature Precipitation Wind Pressure Humidity
    00:00 +21°C° 0.4 mm 1 mps 652 mmHg 72%
    01:00 +21°C° 0.4 mm 1 mps 652 mmHg 73%
    02:00 +20°C° 0.4 mm 1 mps 652 mmHg 75%
    03:00 +20°C° 0.1 mm 1 mps 652 mmHg 76%
    04:00 +20°C° 0.1 mm 1 mps 652 mmHg 78%
    05:00 +19°C° 0.1 mm 1 mps 652 mmHg 79%
    06:00 +20°C° 0.1 mm 1 mps 653 mmHg 75%
    07:00 +21°C° 0.1 mm 1 mps 653 mmHg 71%
    08:00 +22°C° 0.1 mm 1 mps 654 mmHg 67%
    09:00 +23°C° 0.4 mm 2 mps 654 mmHg 62%
    10:00 +25°C° 0.4 mm 2 mps 654 mmHg 57%
    11:00 +26°C° 0.4 mm 2 mps 655 mmHg 51%
    12:00 +26°C° 0.5 mm 2 mps 654 mmHg 51%
    13:00 +27°C° 0.5 mm 3 mps 653 mmHg 50%
    14:00 +27°C° 0.5 mm 3 mps 652 mmHg 50%
    15:00 +26°C° 1.2 mm 3 mps 652 mmHg 52%
    16:00 +26°C° 1.2 mm 3 mps 652 mmHg 55%
    17:00 +25°C° 1.2 mm 3 mps 651 mmHg 58%
    18:00 +24°C° 1 mm 2 mps 651 mmHg 64%
    19:00 +23°C° 1 mm 2 mps 652 mmHg 70%
    20:00 +21°C° 1 mm 1 mps 652 mmHg 76%
    21:00 +21°C° 0.4 mm 1 mps 652 mmHg 77%
    22:00 +21°C° 0.4 mm 1 mps 652 mmHg 78%
    23:00 +19°C° 0.4 mm 0 mps 652 mmHg 79%
    Show more